Location: Sungai Bunut
(2.6333°N, 113.7333°E)
Time: 09:58:27
(UTC+00:00)

Transit 2A Rocket - Pass Details

Date: 06 December 2023
Orbit: 590 x 905 km, 66.7° (Epoch: 01 March)

Event Time Altitude Azimuth Distance (km) Brightness Sun altitude
Rises 10:43:05 0° 171° (S) 3,360 8.5 -7.3°
Reaches altitude 10° 10:46:26 10° 152° (SSE) 2,364 7.5 -8.0°
Maximum altitude 10:49:55 17° 112° (ESE) 1,831 6.6 -8.8°
Enters shadow 10:52:46 12° 75° (ENE) 2,119 6.6 -9.5°
Drops below altitude 10° 10:53:14 10° 71° (ENE) 2,221 - -9.6°
Sets 10:56:13 0° 51° (NE) 3,074 - -10.3°
